World > North America > United States > Iowa > Lacona  

Lacona, IA Hourly Weather Updates

Feedback E-mail the Weather

Quick WX

Lacona, IA Weather Maps

°F °C°F °C
Lacona Weather Map
UTC Time: 2/23/2024, 10:40
Your Time:

Lacona, IA Regional Weather

Expires:202402231100;;553437
ASUS43 KDMX 231006
RWRIA 

WEATHER ROUNDUP FOR IOWA
NATIONAL WEATHER SERVICE DES MOINES IA
400 AM CST FRI FEB 23 2024

NOTE: "FAIR" INDICATES FEW OR NO CLOUDS BELOW 12,000 FEET WITH NO
SIGNIFICANT WEATHER AND/OR OBSTRUCTIONS TO VISIBILITY.

* - THESE STATIONS ARE NOT NWS STATIONS...THUS NOT UNDER NWS
QUALITY CONTROL.  THEY ALSO DO NOT REPORT WEATHER SUCH 
AS PRECIPITATION OR FOG.  


IAZ047>049-059>061-072>074-084-231100-
   CENTRAL IOWA
  
CITY           SKY/WX    TMP DP  RH WIND       PRES   REMARKS
AMES           CLEAR     31  26  82 W7        29.83F WCI  24 TC  -1   
ANKENY *       CLEAR     32  30  93 W10       29.85F WCI  24 TC   0   
CHARITON *       N/A     34  30  86 W7        29.85S WCI  28 TC   1   
DES MOINES     CLEAR     33  28  81 W6        29.85F WCI  28 TC   1   
GRINNELL*      CLEAR     33  31  90 W8        29.83F WCI  26 TC   1   
KNOXVILLE *    CLEAR     32  27  80 W10       29.84F WCI  24 TC   0   
MARSHALLTOWN   CLEAR     27  24  89 W6        29.80F WCI  20 TC  -3   
NEWTON *       CLEAR     30  30 100 W7        29.82F WCI  23 TC  -1   
PELLA *        CLEAR     34  28  80 W9        29.84F WCI  26 TC   1   
PERRY *        CLEAR     27  24  88 W8        29.84F WCI  19 TC  -3   
$$
 

SKY/WX - Weather  TMP - Temperature  DP - Dew Point  RH - Humidity
WIND - Wind Direction/Speed PRES - Barometric Pressure VSB - Visibility
WCI - Wind Chill Index E13G22 Wind - East Wind 13 mph/Gusts of 22 mph

Trending Headlines

Trending Entertainment Headlines

Lacona Radar Loop

Use the map search tool if you want to place a location marker on the radar map...

Lacona Quick Facts

National Two Day Weather Forecast


E-mail the Lacona Weather Forecast

Voice your opinion or tell us about page issues...